Hourly Data Report for October 20, 2014

All times are specified in Local Standard Time (LST). Add 1 hour to adjust for Daylight Saving Time where and when it is observed.

POND INLET A
NUNAVUT

72°41'22.000" N
77°58'08.000" W
61.60 m
2403206
71095
YIO

Download Data

Hourly Data (October 2014)
Hourly Data Report for October 20, 2014
Temp Definition
°C
Dew Point Temp Definition
°C
Rel Hum Definition
%
Wind Dir Definition
10's deg

Wind Spd Definition
km/h
Visibility Definition
km
Stn Press Definition
kPa
Hmdx Definition


Wind Chill Definition


Weather Definition


TIME
00:00 Legend Double Dagger -7.8 -12.0 72 21 5 16.1 100.49   -10 LegendNANA
01:00 Legend Double Dagger -9.3 -12.2 80 18 8 16.1 100.47   -14 LegendNANA
02:00 Legend Double Dagger -9.0 -12.4 77 20 5 16.1 100.46   -12 LegendNANA
03:00 Legend Double Dagger -10.8 -13.3 82 16 5 16.1 100.45   -14 LegendNANA
04:00 Legend Double Dagger -10.1 -12.6 82 15 11 16.1 100.43   -16 LegendNANA
05:00 Legend Double Dagger -11.0 -13.1 85 16 8 16.1 100.42   -16 LegendNANA
06:00 Legend Double Dagger -12.2 -14.1 86 15 13 16.1 100.40   -19 LegendNANA
07:00 Legend Double Dagger -9.7 -11.7 85 19 8 16.1 100.39   -14 LegendNANA
08:00 Legend Double Dagger -8.9 -11.4 82 16 8 16.1 100.37   -13 LegendNANA
09:00 Legend Double Dagger -10.8 -13.1 83 16 11 16.1 100.34   -17 LegendNANA
10:00 Legend Double Dagger -9.8 -12.5 81 15 9 16.1 100.32   -15 LegendNANA
11:00 Legend Double Dagger -8.5 -12.6 72 13 5 16.1 100.30   -11 LegendNANA
12:00 Legend Double Dagger -9.5 -13.3 74 14 13 16.1 100.27   -16 LegendNANA
13:00 Legend Double Dagger -6.6 -10.5 74 LegendMM 4 16.1 100.25   -9 LegendNANA
14:00 Legend Double Dagger -9.3 -11.5 84 16 11 16.1 100.25   -15 LegendNANA
15:00 Legend Double Dagger -9.1 -11.4 83 16 9 16.1 100.25   -14 LegendNANA
16:00 Legend Double Dagger -7.0 -9.8 80 24 5 16.1 100.24   -10 Snow
17:00 Legend Double Dagger -9.5 -11.4 86 15 9 16.1 100.24   -14 LegendNANA
18:00 Legend Double Dagger -8.5 -10.5 85 17 8 16.1 100.21   -13 LegendNANA
19:00 Legend Double Dagger -8.2 -10.1 87 16 13 16.1 100.20   -14 LegendNANA
20:00 Legend Double Dagger -8.5 -10.4 86 19 8 16.1 100.19   -13 Snow
21:00 Legend Double Dagger -9.7 -11.0 91 15 13 16.1 100.17   -16 Snow
22:00 Legend Double Dagger -7.4 -9.3 86 LegendMM 4 16.1 100.15   -9 Snow
23:00 Legend Double Dagger -9.0 -10.6 88 17 9 16.1 100.13   -14 Snow

Notes on Data Quality.

Legend

  • E = Estimated
  • M = Missing
  • NA = Not Available
  • ‡ = Partner data that is not subject to review by the National Climate Archives
Date modified: